Other Public Products
Issued by NWS Charleston, SC

Current Version | Previous Version | Graphics & Text | Print | Product List | Glossary On
Versions: 1 2 3 4 5 6 7 8 9 10 11 12 13 14 15 16 17 18 19 20 21 22 23 24 25 26 27 28 29 30 31 32 33 34 35 36 37 38 39 40 41 42 43 44 45 46 47 48 49 50
400 FPUS82 KCHS 240428 OPUCHS TEST...KCHS/KSAV Gateway Observations...TEST National Weather Service Charleston SC 1200 AM EDT TUE APR 24 2018 NOTE: "fair" indicates few or no clouds below 12,000 feet with no significant weather and/or obstructions to visibility. SCZ050-WAZ558-NCZ071-TXZ119-213-PAZ071-DCZ001-FLZ074-172-MI076- NYZ176-178-MAZ016-IL014-TNZ027-NJZ106-GAZ044-MD014-240500- ...Gateway Observations for Charleston International... CITY SKY/WX TMP DP RH WIND PRES REMARKS Chas Airport LGT RAIN 67 65 93 SE13 29.96F Seattle PTCLDY 61 35 37 NE12 30.21R Charlotte CLOUDY 58 56 93 E15G22 30.04F Dallas DFW CLEAR 68 51 54 NW7 30.02R Dallas Love CLEAR 63 54 72 CALM 30.03R Philladelphia MOCLDY 50 28 42 SE3 30.42S Wash National CLOUDY 56 34 43 SE7 30.37F Baltimore CLOUDY 51 30 44 CALM 30.37F Miami FAIR 76 74 93 S3 30.01F Detroit CLOUDY 55 43 63 CALM 30.18S Newark MOCLDY 51 42 71 CALM 30.43F Laguardia MOCLDY 50 41 71 S6 30.43F J F K MOCLDY 46 43 89 SE3 30.44F Boston Logan FAIR 46 21 37 SW13 30.44S Ft. Lauderdale FAIR 77 75 93 S5 30.00S Chicago O`Hare CLOUDY 49 31 49 N9 30.10F Chicago Midway LGT RAIN 52 34 50 N3 30.10F Houston Bush FAIR 64 55 72 CALM 30.03R Houston Hobby FAIR 64 55 72 CALM 30.03R Nashville CLOUDY 58 56 93 CALM 29.91F Atlanta TSTM 61 61 100 NE10 29.86S FOG $$ GAZ044-118-TXZ119-213-NCZ071-DCZ001-MDZ014-506-PAZ021-071-NJZ106- NYZ176-178-MAZ106-OHZ011-021-055-MIZ076-KYZ091-ILZ014-INZ047- MNZ060-ONZ431-240500- ...Gateway Observations for Savannah International... CITY SKY/WX TMP DP RH WIND PRES REMARKS Savannah Arpt CLOUDY 70 68 93 SE9 29.90F Atlanta TSTM 61 61 100 NE10 29.86S FOG Charlotte CLOUDY 58 56 93 E15G22 30.04F Dallas DFW CLEAR 68 51 54 NW7 30.02R Houston Bush FAIR 64 55 72 CALM 30.03R Wash National CLOUDY 56 34 43 SE7 30.37F Wash Dulles CLOUDY 55 31 39 SE9 30.34F Baltimore CLOUDY 51 30 44 CALM 30.37F Philadelphia MOCLDY 50 28 42 SE3 30.42S Newark MOCLDY 51 42 71 CALM 30.43F Laguardia MOCLDY 50 41 71 S6 30.43F J F K MOCLDY 46 43 89 SE3 30.44F Boston FAIR 46 21 37 SW13 30.44S Pittsburg LGT RAIN 59 46 62 SE8 30.20F Akron CLOUDY 56 40 55 S5 30.19F Cleveland CLOUDY 57 47 69 E3 30.21F Cincinnati CLOUDY 53 49 86 E10 30.03F Columbus LGT RAIN 52 48 89 E7 30.11F Detroit CLOUDY 55 43 63 CALM 30.18S Chicago O`Hare CLOUDY 49 31 49 N9 30.10F Minneapolis FAIR 56 40 55 N5 30.13S Indianapolis CLOUDY 53 50 89 E13 30.03F Toronto Canada CLOUDY 54 21 28 S2 30.19F $$

USA.gov is the U.S. government's official web portal to all federal, state and local government web resources and services.